DW2258 Weather Reports


time (UTC)temp
F
wind
direction
speed
knots
gust
knots
rain 1hr
in
rain 24hr
in
rain mn
in
humidity
%
barometer
mb
20260505111657 46 228 9.6 13.9 0.00 0.00 0.00 89 1009.7
20260505110135 45 212 9.6 14.8 0.00 0.00 0.00 89 1009.7
20260505101640 46 233 13.0 19.1 0.00 0.00 0.00 89 1009.4
20260505100159 45 215 10.4 17.4 0.00 0.00 0.00 90 1009.2
20260505094637 44 231 9.6 16.5 0.00 0.00 0.00 90 1009.1
20260505093159 44 226 8.7 14.8 0.00 0.00 0.00 90 1009.1
20260505091638 44 244 8.7 13.9 0.00 0.00 0.00 90 1009.1
20260505090137 44 216 10.4 17.4 0.00 0.00 0.00 90 1009.1
20260505084656 44 243 9.6 16.5 0.00 0.00 0.00 89 1009.1
20260505083133 45 225 7.8 13.9 0.00 0.00 0.00 89 1009.2
20260505081638 45 248 7.8 14.8 0.00 0.00 0.00 89 1009.0
20260505080138 45 215 7.8 16.5 0.00 0.00 0.00 87 1009.0
20260505074637 46 220 11.3 18.2 0.00 0.00 0.00 87 1008.9
20260505073138 46 245 14.8 20.0 0.00 0.00 0.00 87 1008.8
20260505071640 45 242 12.2 16.5 0.00 0.00 0.00 88 1008.7
20260505070141 45 218 13.0 17.4 0.00 0.00 0.00 88 1008.7
20260505064643 45 228 13.9 20.0 0.00 0.00 0.00 88 1008.8
20260505063144 45 223 13.9 20.0 0.00 0.00 0.00 88 1008.7
20260505061628 45 217 11.3 18.2 0.00 0.00 0.00 88 1008.7
20260505060130 45 207 13.9 20.0 0.00 0.00 0.00 87 1008.7
20260505054630 45 232 13.0 21.7 0.00 0.00 0.00 87 1008.5
20260505053131 46 247 13.9 20.0 0.00 0.00 0.00 86 1008.4
20260505051653 46 238 13.0 21.7 0.00 0.00 0.00 87 1008.3
20260505050134 46 215 12.2 19.1 0.00 0.00 0.00 87 1008.3
20260505041635 45 231 9.6 15.6 0.00 0.00 0.00 87 1008.5
20260505040134 45 228 6.1 10.4 0.00 0.00 0.00 87 1008.5
20260505034639 46 227 6.1 9.6 0.00 0.00 0.00 86 1008.6
20260505033140 46 247 1.7 7.0 0.00 0.00 0.00 84 1008.5
20260505031640 46 251 1.7 7.0 0.00 0.00 0.00 84 1008.7
20260505030139 46 235 4.3 7.0 0.00 0.00 0.00 84 1008.7
20260505024642 45 228 3.5 6.1 0.00 0.01 0.00 86 1008.7
20260505023143 45 217 2.6 5.2 0.00 0.01 0.00 86 1008.6
20260505021643 45 210 2.6 7.8 0.00 0.01 0.00 86 1008.5
20260505020141 45 218 6.1 10.4 0.00 0.01 0.00 86 1008.4
20260505014644 46 236 7.0 9.6 0.00 0.01 0.00 85 1008.3
20260505013144 46 225 6.1 13.0 0.00 0.01 0.00 85 1008.2
20260505011644 46 220 6.1 9.6 0.00 0.01 0.00 86 1008.1
20260505010142 45 235 6.1 9.6 0.00 0.01 0.00 86 1007.9
20260505004628 46 241 5.2 10.4 0.00 0.01 0.00 85 1007.8
20260505003129 46 258 7.0 13.9 0.00 0.01 0.00 85 1007.6
20260505001628 45 233 7.8 13.0 0.00 0.01 0.00 87 1007.3
20260505000128 45 211 7.8 13.0 0.00 0.01 0.00 86 1007.1
20260504234628 45 128 6.1 9.6 0.00 0.01 0.00 87 1006.9
20260504233152 45 185 6.1 10.4 0.00 0.01 0.00 87 1006.6
20260504231649 45 211 5.2 10.4 0.00 0.01 0.00 86 1006.5
20260504230149 46 235 5.2 10.4 0.00 0.01 0.00 84 1006.2
20260504224628 47 229 5.2 8.7 0.00 0.01 0.00 83 1006.2
20260504223130 47 227 7.0 13.9 0.00 0.01 0.00 82 1006.2
20260504221633 48 171 4.3 13.9 0.00 0.01 0.00 81 1006.0
20260504220133 48 218 6.1 12.2 0.00 0.01 0.00 81 1005.8
20260504214654 49 206 7.0 15.6 0.00 0.01 0.00 80 1005.7
20260504213134 49 195 7.0 16.5 0.00 0.01 0.00 79 1005.8
20260504211635 49 242 7.8 13.9 0.00 0.01 0.00 79 1005.6
20260504210138 49 210 7.0 13.0 0.00 0.01 0.00 80 1005.6
20260504204700 49 233 7.0 10.4 0.00 0.03 0.00 79 1005.6
20260504203159 49 214 5.2 9.6 0.00 0.03 0.00 80 1005.4
20260504201638 49 250 7.0 10.4 0.00 0.03 0.00 78 1005.6
20260504200140 51 220 5.2 12.2 0.00 0.03 0.00 76 1005.5
20260504194643 51 213 7.8 13.0 0.00 0.04 0.00 77 1005.4
20260504193142 49 219 7.8 12.2 0.00 0.04 0.00 79 1005.7
20260504191642 48 239 7.0 13.0 0.00 0.04 0.00 80 1005.9
20260504190204 48 234 9.6 13.0 0.00 0.04 0.00 79 1006.2
20260504184627 48 247 9.6 13.9 0.00 0.07 0.00 81 1006.3
20260504183206 46 233 8.7 13.9 0.00 0.07 0.00 84 1006.3
20260504181626 46 245 12.2 20.0 0.00 0.07 0.00 84 1006.0
20260504180206 45 230 9.6 14.8 0.00 0.07 0.00 85 1005.8
20260504174645 45 228 9.6 16.5 0.00 0.12 0.00 84 1005.9
20260504173128 46 226 9.6 16.5 0.00 0.12 0.00 83 1005.8
20260504171627 47 241 7.8 13.9 0.00 0.12 0.00 82 1005.6
20260504170127 46 218 9.6 19.1 0.00 0.12 0.00 83 1005.6
20260504160130 47 207 6.1 9.6 0.00 0.17 0.00 81 1006.0
20260504150152 46 246 7.8 15.6 0.00 0.20 0.00 82 1007.0
20260504140135 46 229 8.7 15.6 0.00 0.26 0.00 79 1007.3
20260504130138 46 237 8.7 15.6 0.00 0.32 0.00 77 1007.5
20260504120202 44 268 11.3 16.5 0.00 0.37 0.00 79 1007.8